Culiacan, Mexico

1:52 AM MST on January 23, 2018 (GMT -0700)
Culiacan International

Weather History for MMCL - December, 2012

Change the Weather History Date:

Saturday, December 8, 2012

  Actual Average Record
Temperature  
Mean Temperature 74 °F -  
Max Temperature 82 °F 82 °F 91 °F (2014)
Min Temperature 61 °F 57 °F 48 °F (1998)
Cooling Degree Days 10    
Growing Degree Days 24 (Base 50)    
Moisture  
Dew Point 67 °F    
Average Humidity 76    
Maximum Humidity 95    
Minimum Humidity 25    
Precipitation  
Precipitation 0.00 in - - ()
Sea Level Pressure  
Sea Level Pressure 29.90 in    
Wind  
Wind Speed 1 mph ()    
Max Wind Speed 9 mph    
Max Gust Speed -    
Visibility 8.5 miles    
Events      
Averages and records for this station are not official NWS values.
T = Trace of Precipitation, MM = Missing Value Source: Averaged Metar Reports

Daily Weather History Graph

Daily Weather History Graph

Search for Another Location

Airport or City:

Trip Planner

Search our weather history database for the weather conditions in past years. The results will help you decide how hot, cold, wet, or windy it might be!

Date:

Astronomy

Dec. 08, 2012 Rise Set
Actual Time 6:42 AM MST 5:21 PM MST
Civil Twilight 6:17 AM MST 5:46 PM MST
Nautical Twilight 5:49 AM MST 6:14 PM MST
Astronomical Twilight 5:21 AM MST 6:42 PM MST
Moon 1:36 AM MST (12/8) 1:30 PM MST (12/8)
Length of Visible Light 11h 28m
Length of Day
10h 38m
Waning Crescent, 27% of the Moon is Illuminated
Dec 8
Waning Crescent
Dec 13
New
Dec 19
First Quarter
Dec 28
Full
Jan 4
Last Quarter

Hourly Weather History & Observations

Time (MST) Temp. Heat Index Dew Point Humidity Pressure Visibility Wind Dir Wind Speed Gust Speed Precip Events Conditions
4:40 AM 65 °F - 64 °F 95% 29.91 in 6 mi SW 2.2 mph - -  
5:55 AM 69.8 °F - 68.0 °F 94% 29.88 in 8.0 mi Calm Calm - N/A   Scattered Clouds
6:40 AM 69.8 °F - 68.0 °F 94% 29.90 in 8.0 mi Calm Calm - N/A   Scattered Clouds
7:40 AM 65 °F - 64 °F 95% 29.94 in 10 mi SW 2.2 mph - -   Haze
7:41 AM 69.8 °F - 66.2 °F 88% 29.88 in 8.0 mi Calm Calm - N/A   Mostly Cloudy
8:42 AM 71.6 °F - 64.4 °F 78% 29.93 in 8.0 mi Calm Calm - N/A   Scattered Clouds
9:41 AM 77.0 °F - 66.2 °F 69% 29.93 in 8.0 mi Calm Calm - N/A   Scattered Clouds
10:40 AM 88 °F - 57 °F 25% 29.91 in 10 mi SSW 2.2 mph - -   Haze
10:42 AM 80.6 °F 83.2 °F 68.0 °F 65% 29.91 in 8.0 mi Calm Calm - N/A   Mostly Cloudy
11:40 AM 80.6 °F 83.2 °F 68.0 °F 65% 29.91 in 8.0 mi Calm Calm - N/A   Mostly Cloudy
12:40 PM 82.4 °F 86.3 °F 69.8 °F 66% 29.87 in 8.0 mi Calm Calm - N/A   Mostly Cloudy
1:40 PM 82.4 °F 86.3 °F 69.8 °F 66% 29.83 in 8.0 mi Calm Calm - N/A   Mostly Cloudy
2:40 PM 82.4 °F 86.3 °F 69.8 °F 66% 29.86 in 8.0 mi West 9.2 mph - N/A   Mostly Cloudy
3:40 PM 80.6 °F 83.9 °F 69.8 °F 70% 29.86 in 10.0 mi SSW 5.8 mph - N/A   Overcast
4:40 PM 80.6 °F 83.9 °F 69.8 °F 70% 29.84 in 10.0 mi Calm Calm - N/A   Overcast
5:42 PM 77.0 °F - 69.8 °F 78% 29.87 in 10.0 mi Calm Calm - N/A   Overcast
6:41 PM 75.2 °F - 68.0 °F 78% 29.88 in 10.0 mi Calm Calm - N/A   Overcast
7:40 PM 73 °F - 67 °F 78% 29.99 in 6 mi Calm Calm - -  
7:40 PM 75.2 °F - 68.0 °F 78% 29.88 in 10.0 mi Calm Calm - N/A   Overcast
8:40 PM 75.2 °F - 68.0 °F 78% 29.91 in 10.0 mi Calm Calm - N/A   Overcast
9:40 PM 73.4 °F - 68.0 °F 83% 29.93 in 10.0 mi Calm Calm - N/A   Overcast
10:45 PM 70 °F - 68 °F 91% 30.01 in 6 mi Calm Calm - -